Weather reports worldwide

Advertisment
Capo Carbonara, Italy (16564): temperature & dewpoint: 11.08.2018 22:00:00 - 17.08.2018 22:00:00 (CEST)Capo Carbonara, Italy (16564): wind speed: 11.08.2018 22:00:00 - 17.08.2018 22:00:00 (CEST)Capo Carbonara, Italy (16564): wind direction: 11.08.2018 22:00:00 - 17.08.2018 22:00:00 (CEST)Capo Carbonara, Italy (16564): reduced air pressure: 11.08.2018 22:00:00 - 17.08.2018 22:00:00 (CEST)Capo Carbonara, Italy (16564): visibility: 11.08.2018 22:00:00 - 17.08.2018 22:00:00 (CEST)
Date & Time tt [°C] td [°C] ff [km/h] ff [kn] dd ppp [hPa] vv [km]
17.08.2018 22:00:00 25,0 21,0 4 2 NNW - 10
17.08.2018 21:00:00 26,0 22,0 11 6 SW - 10
17.08.2018 20:00:00 27,2 22,8 16 9 SW 1013,7 20
17.08.2018 19:00:00 29,0 23,0 21 11 SW - 10
17.08.2018 18:00:00 30,0 24,0 22 12 SSW - 10
17.08.2018 17:00:00 30,0 22,4 21 11 WSW 1013,9 20
17.08.2018 16:00:00 31,0 24,0 16 9 S - 10
17.08.2018 15:00:00 30,0 23,0 16 9 SE - 10
17.08.2018 14:00:00 29,4 23,4 16 9 S 1014,5 20
17.08.2018 13:00:00 28,0 23,0 13 7 SSE - 10
17.08.2018 12:00:00 28,0 23,0 13 7 S - 10
17.08.2018 11:00:00 27,4 22,4 11 6 ESE 1014,5 20
17.08.2018 10:00:00 25,0 21,0 4 2 SSE - 10
17.08.2018 09:00:00 24,0 20,0 11 6 ENE - 10
17.08.2018 08:00:00 24,4 20,1 5 3 E 1014,0 18
17.08.2018 07:00:00 23,0 19,0 5 3 E - 10
17.08.2018 06:00:00 23,0 19,0 2 1 NE - 10
17.08.2018 05:00:00 23,2 19,0 4 2 NE 1013,4 16
17.08.2018 04:00:00 23,0 19,0 0 0 N - 10
17.08.2018 03:00:00 23,0 19,0 5 3 NNE - 10
17.08.2018 02:00:00 23,2 18,7 5 3 NNE 1013,7 16
17.08.2018 01:00:00 23,0 19,0 11 6 NNE - 10
17.08.2018 00:00:00 23,0 19,0 13 7 NNE - 10
16.08.2018 23:00:00 23,4 19,1 16 9 NNE 1013,6 18
16.08.2018 22:00:00 24,0 20,0 9 5 NE - 10
16.08.2018 21:00:00 24,0 20,0 9 5 NE - 10
16.08.2018 20:00:00 26,4 22,0 5 3 NE 1012,9 18
16.08.2018 19:00:00 27,0 22,0 4 2 NNE - 10
16.08.2018 18:00:00 27,0 21,0 4 2 ENE - 10
16.08.2018 17:00:00 27,8 21,8 4 2 NE 1013,6 10
16.08.2018 16:00:00 24,0 20,0 4 2 W - 10
16.08.2018 15:00:00 25,0 21,0 4 2 N - 10
16.08.2018 14:00:00 31,2 21,4 16 9 E 1013,3 20
16.08.2018 13:00:00 29,0 21,0 18 10 ENE - 10
16.08.2018 12:00:00 28,0 20,0 15 8 ENE - 10
16.08.2018 11:00:00 27,4 20,2 15 8 E 1014,0 20
16.08.2018 10:00:00 26,0 21,0 9 5 E - 10
16.08.2018 09:00:00 26,0 21,0 5 3 NNE - 10
16.08.2018 08:00:00 23,8 19,3 9 5 WNW 1013,5 20
16.08.2018 07:00:00 24,0 19,0 9 5 WNW - 10
16.08.2018 06:00:00 24,0 19,0 9 5 WNW - 10
16.08.2018 05:00:00 23,6 19,1 8 4 W 1013,4 20
16.08.2018 04:00:00 24,0 19,0 9 5 W - 10
16.08.2018 03:00:00 24,0 20,0 8 4 NW - 10
16.08.2018 02:00:00 23,8 19,1 9 5 WNW 1013,8 20
16.08.2018 01:00:00 24,0 19,0 9 5 NW - 10
16.08.2018 00:00:00 24,0 19,0 9 5 NW - 10
15.08.2018 23:00:00 23,6 18,9 9 5 N 1013,8 20
15.08.2018 22:00:00 24,0 19,0 15 8 N - 10
15.08.2018 21:00:00 24,0 19,0 16 9 NNE - 10
15.08.2018 20:00:00 25,2 20,5 15 8 NE 1013,1 25
15.08.2018 19:00:00 26,0 21,0 13 7 NE - 10
15.08.2018 18:00:00 24,0 20,0 15 8 NE - 10
15.08.2018 17:00:00 22,0 17,5 16 9 NE 1012,8 10
15.08.2018 16:00:00 25,0 21,0 28 15 NE - 10
15.08.2018 15:00:00 29,0 18,0 21 11 ENE - 10
15.08.2018 14:00:00 29,0 19,0 13 7 E 1012,3 20
15.08.2018 13:00:00 27,0 21,0 16 9 ENE - 10
15.08.2018 12:00:00 26,0 21,0 41 22 WSW - 10
15.08.2018 11:00:00 24,8 19,6 35 19 WSW 1012,3 25
15.08.2018 10:00:00 24,0 19,0 28 15 W - 10
15.08.2018 09:00:00 23,0 18,0 22 12 WSW - 10
15.08.2018 08:00:00 22,4 18,0 16 9 WSW 1012,2 20
15.08.2018 07:00:00 22,0 18,0 28 15 WSW - 10
15.08.2018 06:00:00 23,0 17,0 21 11 W - 10
15.08.2018 05:00:00 22,6 16,4 28 15 W 1012,6 10
15.08.2018 04:00:00 23,0 19,0 28 15 W - 10
15.08.2018 03:00:00 23,0 19,0 41 22 W - 10
15.08.2018 02:00:00 23,8 19,5 29 16 W 1012,8 18
15.08.2018 01:00:00 23,0 19,0 35 19 W - 10
15.08.2018 00:00:00 24,0 18,0 16 9 W - 10
14.08.2018 23:00:00 23,4 17,2 39 21 W 1012,8 18
14.08.2018 22:00:00 23,0 19,0 31 17 WSW - 10
14.08.2018 21:00:00 24,0 20,0 8 4 WSW - 10
14.08.2018 20:00:00 25,0 19,8 5 3 NNW 1012,6 18
14.08.2018 19:00:00 25,0 20,0 28 15 NNE - 10
14.08.2018 18:00:00 26,0 20,0 18 10 NE - 10
14.08.2018 17:00:00 25,2 21,1 35 19 NE 1012,2 10
14.08.2018 16:00:00 29,0 24,0 34 18 SW - 10
14.08.2018 15:00:00 31,0 22,0 42 23 WSW - 10
14.08.2018 14:00:00 30,6 20,2 46 25 WSW 1010,9 20
14.08.2018 13:00:00 31,0 20,0 37 20 WSW - 10
14.08.2018 12:00:00 31,0 22,0 5 3 S - 10
14.08.2018 11:00:00 28,4 22,6 13 7 E 1012,3 18
14.08.2018 10:00:00 26,0 18,0 31 17 W - 10
14.08.2018 09:00:00 24,0 19,0 31 17 W - 10
14.08.2018 08:00:00 24,8 17,3 28 15 WSW 1011,4 18
14.08.2018 07:00:00 25,0 19,0 29 16 W - 10
14.08.2018 06:00:00 25,0 20,0 22 12 WSW - 10
14.08.2018 05:00:00 25,6 20,8 18 10 WSW 1011,5 15
14.08.2018 04:00:00 26,0 21,0 18 10 WSW - 10
14.08.2018 03:00:00 26,0 21,0 11 6 W - 10
14.08.2018 02:00:00 26,0 21,2 22 12 WSW 1012,2 15
14.08.2018 01:00:00 26,0 21,0 22 12 WSW - 10
14.08.2018 00:00:00 27,0 22,0 18 10 SW - 10
13.08.2018 23:00:00 26,6 22,0 15 8 SW 1011,6 15
13.08.2018 22:00:00 27,0 22,0 16 9 SSW - 10
13.08.2018 21:00:00 27,0 23,0 15 8 SW - 10
13.08.2018 20:00:00 28,4 24,2 13 7 SSW 1011,9 15
13.08.2018 19:00:00 29,0 25,0 13 7 SSE - 10
13.08.2018 18:00:00 32,0 26,0 8 4 SSE - 10
13.08.2018 17:00:00 31,0 24,9 15 8 SSE 1012,5 15
13.08.2018 16:00:00 - - - - - - -
13.08.2018 15:00:00 32,0 26,0 18 10 SSE - 10
13.08.2018 14:00:00 33,0 25,5 13 7 ESE 1013,4 15
13.08.2018 13:00:00 32,0 26,0 15 8 ESE - 10
13.08.2018 12:00:00 31,0 26,0 13 7 E - 10
13.08.2018 11:00:00 29,0 24,3 9 5 ENE 1014,4 20
13.08.2018 10:00:00 23,0 19,0 9 5 ENE - 10
13.08.2018 09:00:00 26,0 22,0 5 3 E - 10
13.08.2018 08:00:00 25,6 21,3 4 2 NNE 1014,1 18
13.08.2018 07:00:00 25,0 21,0 11 6 NE - 10
13.08.2018 06:00:00 25,0 21,0 4 2 NE - 10
13.08.2018 05:00:00 25,8 21,7 2 1 E 1014,1 18
13.08.2018 04:00:00 26,0 22,0 9 5 S - 10
13.08.2018 03:00:00 26,0 20,0 11 6 S - 10
13.08.2018 02:00:00 26,4 22,0 15 8 S 1014,7 18
13.08.2018 01:00:00 26,0 22,0 9 5 S - 10
13.08.2018 00:00:00 27,0 23,0 4 2 SSW - 10
12.08.2018 23:00:00 26,8 23,1 9 5 SSW 1015,5 18
12.08.2018 22:00:00 27,0 23,0 15 8 SW - 10
12.08.2018 21:00:00 27,0 23,0 16 9 SSW - 10
12.08.2018 20:00:00 28,6 24,4 15 8 SSW 1015,0 10
12.08.2018 19:00:00 31,0 26,0 15 8 SSW - 10
12.08.2018 18:00:00 32,0 23,0 13 7 SSW - 10
12.08.2018 17:00:00 32,4 24,9 16 9 WNW 1015,8 10
12.08.2018 16:00:00 33,0 25,0 15 8 S - 10
12.08.2018 15:00:00 32,0 26,0 13 7 S - 10
12.08.2018 14:00:00 31,6 26,6 11 6 E 1016,9 18
12.08.2018 13:00:00 30,0 26,0 15 8 ENE - 10
12.08.2018 12:00:00 30,0 25,0 13 7 ENE - 10
12.08.2018 11:00:00 28,4 24,0 18 10 ENE 1017,4 18
12.08.2018 10:00:00 27,0 21,0 8 4 E - 10
12.08.2018 09:00:00 26,0 21,0 13 7 WSW - 10
12.08.2018 08:00:00 26,2 21,9 15 8 N 1017,1 18
12.08.2018 07:00:00 25,0 21,0 18 10 NNE - 10
12.08.2018 06:00:00 26,0 22,0 11 6 NE - 10
12.08.2018 05:00:00 25,8 21,5 9 5 NE 1016,9 16
12.08.2018 04:00:00 26,0 21,0 5 3 ENE - 10
12.08.2018 03:00:00 28,0 16,0 5 3 NE - 10
12.08.2018 02:00:00 27,6 16,9 5 3 NE 1017,4 16
12.08.2018 01:00:00 28,0 18,0 5 3 NNE - 10
12.08.2018 00:00:00 27,0 22,0 8 4 W - 10
11.08.2018 23:00:00 26,8 22,2 13 7 WSW 1017,6 16
11.08.2018 22:00:00 27,0 23,0 13 7 WSW - 10

tt = temperature
td = dewpoint
ff = wind speed
dd = wind direction
ppp = reduced air pressure
vv = visibility

Next stations